SV2RIM-2 Weather Reports


time (UTC)temp
C
wind
direction
speed
KPH
gust
KPH
rain 1hr
cm
rain 24hr
cm
rain mn
cm
humidity
%
barometer
mb
20260503230019 7 319 9.7 16.1 0.00 0.00 0.00 49 1018.0
20260503225019 7 318 6.4 11.3 0.00 0.00 0.00 50 1018.1
20260503224019 7 325 8.0 12.9 0.00 0.00 0.00 50 1018.1
20260503223019 7 333 9.7 17.7 0.00 0.00 0.00 49 1018.0
20260503222018 7 320 9.7 16.1 0.00 0.00 0.00 50 1018.1
20260503221019 7 321 9.7 17.7 0.00 0.00 0.00 50 1018.1
20260503220019 7 329 9.7 16.1 0.00 0.00 0.00 50 1018.1
20260503215019 7 336 11.3 19.3 0.00 0.00 0.00 49 1018.1
20260503214019 7 335 11.3 17.7 0.00 0.00 0.00 49 1018.0
20260503213019 7 339 11.3 19.3 0.00 0.00 0.00 48 1018.0
20260503212019 7 340 11.3 16.1 0.00 0.00 0.00 48 1018.0
20260503211018 7 340 11.3 17.7 0.00 0.00 0.00 48 1018.0
20260503210019 7 343 11.3 17.7 0.00 0.00 0.00 48 1017.9
20260503205019 8 352 11.3 17.7 0.00 0.00 0.00 47 1017.9
20260503204019 8 340 9.7 17.7 0.00 0.00 0.00 47 1017.9
20260503203019 8 320 9.7 16.1 0.00 0.00 0.00 46 1017.9
20260503202018 8 337 9.7 17.7 0.00 0.00 0.00 45 1017.8
20260503201019 8 330 9.7 16.1 0.00 0.00 0.00 45 1017.9
20260503200019 8 333 9.7 14.5 0.00 0.00 0.00 44 1017.8
20260503195019 8 320 9.7 17.7 0.00 0.00 0.00 44 1017.8
20260503194019 8 342 9.7 16.1 0.00 0.00 0.00 44 1017.7
20260503193019 8 339 9.7 17.7 0.00 0.00 0.00 44 1017.6
20260503192019 8 330 9.7 16.1 0.00 0.00 0.00 44 1017.6
20260503191019 8 321 9.7 16.1 0.00 0.00 0.00 44 1017.5
20260503190019 9 324 9.7 19.3 0.00 0.00 0.00 43 1017.4
20260503185019 9 336 8.0 17.7 0.00 0.00 0.00 42 1017.3
20260503184019 10 327 8.0 14.5 0.00 0.00 0.00 42 1017.2
20260503183019 10 314 8.0 14.5 0.00 0.00 0.00 42 1017.1
20260503182019 10 331 8.0 14.5 0.00 0.00 0.00 41 1017.0
20260503181019 10 333 6.4 11.3 0.00 0.00 0.00 40 1016.9
20260503180018 10 327 6.4 11.3 0.00 0.00 0.00 40 1016.8
20260503175018 11 338 8.0 11.3 0.00 0.00 0.00 40 1016.7
20260503174019 11 348 8.0 14.5 0.00 0.00 0.00 39 1016.5
20260503173019 12 352 8.0 16.1 0.00 0.00 0.00 38 1016.4
20260503172019 13 330 4.8 8.0 0.00 0.00 0.00 37 1016.4
20260503171019 14 257 0.0 3.2 0.00 0.00 0.00 38 1016.2
20260503131019 21 216 3.2 8.0 0.00 0.00 0.00 43 1016.7
20260503081019 14 177 3.2 4.8 0.00 0.00 0.00 44 1018.6
20260503072019 15 359 9.7 20.9 0.00 0.00 0.00 37 1018.1
20260503071019 15 350 9.7 20.9 0.00 0.00 0.00 37 1018.0
20260503055019 10 349 11.3 20.9 0.00 0.00 0.00 53 1017.4
20260503054019 10 344 14.5 20.9 0.00 0.00 0.00 54 1017.3
20260503053019 10 351 11.3 20.9 0.00 0.00 0.00 53 1017.2
20260503052019 10 350 11.3 19.3 0.00 0.00 0.00 55 1017.2
20260503051019 10 354 9.7 20.9 0.00 0.00 0.00 55 1017.2
20260503050019 9 343 9.7 17.7 0.00 0.00 0.00 56 1017.1
20260503045019 9 346 9.7 19.3 0.00 0.00 0.00 55 1017.0
20260503044019 9 345 9.7 16.1 0.00 0.00 0.00 55 1017.0
20260503043019 9 350 11.3 19.3 0.00 0.00 0.00 55 1017.0
20260503042019 9 349 14.5 20.9 0.00 0.00 0.00 54 1016.8
20260503041019 9 348 14.5 22.5 0.00 0.00 0.00 55 1016.7
20260503040018 9 352 12.9 19.3 0.00 0.00 0.00 56 1016.6
20260503035019 9 355 12.9 20.9 0.00 0.00 0.00 56 1016.4
20260503034019 9 357 9.7 20.9 0.00 0.03 0.00 55 1016.3
20260503033019 8 343 11.3 20.9 0.00 0.03 0.00 58 1015.9
20260503032019 8 346 11.3 17.7 0.00 0.03 0.00 59 1015.8
20260503031019 7 333 4.8 9.7 0.00 0.03 0.00 64 1016.0
20260503030019 7 249 1.6 4.8 0.00 0.03 0.00 64 1016.1
20260503025019 7 249 0.0 1.6 0.00 0.05 0.00 64 1016.3
20260503024019 6 233 1.6 3.2 0.00 0.13 0.00 63 1016.3
20260503023018 6 320 4.8 6.4 0.00 0.23 0.00 63 1016.3
20260503022019 6 340 6.4 12.9 0.00 0.28 0.00 63 1016.5
20260503021019 6 340 6.4 12.9 0.00 0.36 0.00 64 1016.6
20260503020019 6 296 3.2 6.4 0.00 0.36 0.00 64 1016.6
20260503015019 7 332 3.2 6.4 0.00 0.36 0.00 63 1016.7
20260503014019 7 348 4.8 9.7 0.00 0.36 0.00 62 1016.7
20260503013019 7 214 1.6 3.2 0.00 0.36 0.00 61 1016.6
20260503012019 7 180 0.0 1.6 0.00 0.36 0.00 60 1016.7
20260503011019 7 200 1.6 4.8 0.00 0.36 0.00 61 1016.7
20260503010019 7 227 0.0 3.2 0.00 0.36 0.00 61 1016.8
20260503005019 7 228 1.6 3.2 0.00 0.36 0.00 61 1017.0
20260503004019 7 225 0.0 3.2 0.00 0.36 0.00 60 1017.0
20260503003018 7 256 1.6 1.6 0.00 0.36 0.00 60 1017.0
20260503002019 7 295 1.6 4.8 0.00 0.36 0.00 61 1017.0
20260503001019 7 267 1.6 3.2 0.00 0.36 0.00 61 1016.9
20260503000019 8 281 1.6 6.4 0.00 0.36 0.00 59 1016.9
20260502235019 8 313 3.2 8.0 0.00 0.36 0.00 58 1016.9
20260502234018 8 335 4.8 8.0 0.00 0.36 0.00 57 1016.9
20260502233019 8 315 4.8 8.0 0.00 0.36 0.00 57 1017.1
20260502232019 8 317 3.2 8.0 0.00 0.36 0.00 58 1017.3
20260502231019 8 340 4.8 11.3 0.00 0.36 0.00 59 1017.5